• In Hungary
  • List of Countries
  • For 7 days
  • Water Temperature
  • Satellite Maps
  • Weather Map
  • News
  • Weather Widgets
  • user-avatar
    Login

    Hourly Weather Campobasso

    Today, 26 May, Saturday

    Time Temperature Precipitation Wind Pressure Humidity
    00:00 +16°C° 0 mm 1 mps 701 mmHg 87%
    01:00 +15°C° 0 mm 1 mps 701 mmHg 85%
    02:00 +15°C° 0 mm 1 mps 701 mmHg 84%
    03:00 +15°C° 0 mm 1 mps 701 mmHg 83%
    04:00 +15°C° 0 mm 1 mps 701 mmHg 82%
    05:00 +16°C° 0 mm 1 mps 701 mmHg 78%
    06:00 +19°C° 0 mm 1 mps 702 mmHg 74%
    07:00 +20°C° 0 mm 1 mps 702 mmHg 70%
    08:00 +21°C° 0 mm 1 mps 703 mmHg 65%
    09:00 +23°C° 0 mm 2 mps 703 mmHg 61%
    10:00 +24°C° 0 mm 2 mps 703 mmHg 56%
    11:00 +25°C° 0 mm 2 mps 703 mmHg 55%
    12:00 +25°C° 0 mm 2 mps 704 mmHg 53%
    13:00 +26°C° 0 mm 2 mps 704 mmHg 53%
    14:00 +26°C° 0.1 mm 2 mps 704 mmHg 54%
    15:00 +26°C° 0.1 mm 2 mps 703 mmHg 56%
    16:00 +25°C° 0.1 mm 2 mps 703 mmHg 57%
    17:00 +24°C° 0.3 mm 2 mps 703 mmHg 64%
    18:00 +22°C° 0.3 mm 1 mps 703 mmHg 70%
    19:00 +21°C° 0.3 mm 1 mps 703 mmHg 76%
    20:00 +20°C° 0.1 mm 1 mps 703 mmHg 78%
    21:00 +19°C° 0.1 mm 1 mps 703 mmHg 80%
    22:00 +18°C° 0.1 mm 1 mps 703 mmHg 82%
    23:00 +18°C° 0 mm 1 mps 703 mmHg 82%

    Tomorrow, 27 May, Sunday

    Time Temperature Precipitation Wind Pressure Humidity
    00:00 +18°C° 0 mm 1 mps 703 mmHg 82%
    01:00 +16°C° 0 mm 1 mps 703 mmHg 82%
    02:00 +16°C° 0 mm 1 mps 702 mmHg 81%
    03:00 +16°C° 0 mm 1 mps 702 mmHg 81%
    04:00 +16°C° 0 mm 1 mps 702 mmHg 80%
    05:00 +18°C° 0 mm 1 mps 702 mmHg 77%
    06:00 +19°C° 0 mm 1 mps 703 mmHg 73%
    07:00 +19°C° 0 mm 0 mps 703 mmHg 70%
    08:00 +22°C° 0 mm 1 mps 703 mmHg 65%
    09:00 +24°C° 0 mm 1 mps 704 mmHg 61%
    10:00 +25°C° 0 mm 1 mps 704 mmHg 57%
    11:00 +26°C° 0.2 mm 1 mps 704 mmHg 56%
    12:00 +26°C° 0.2 mm 1 mps 704 mmHg 55%
    13:00 +27°C° 0.2 mm 2 mps 704 mmHg 54%
    14:00 +26°C° 0.7 mm 2 mps 704 mmHg 56%
    15:00 +26°C° 0.7 mm 2 mps 704 mmHg 58%
    16:00 +26°C° 0.7 mm 2 mps 703 mmHg 60%
    17:00 +24°C° 0.3 mm 1 mps 703 mmHg 66%
    18:00 +23°C° 0.3 mm 1 mps 703 mmHg 71%
    19:00 +21°C° 0.3 mm 1 mps 703 mmHg 76%
    20:00 +21°C° 0.2 mm 1 mps 703 mmHg 78%
    21:00 +20°C° 0.2 mm 1 mps 703 mmHg 79%
    22:00 +19°C° 0.2 mm 1 mps 703 mmHg 80%
    23:00 +19°C° 0 mm 1 mps 703 mmHg 81%

    Day after tomorrow, 28 May, Monday

    Time Temperature Precipitation Wind Pressure Humidity
    00:00 +18°C° 0 mm 1 mps 703 mmHg 82%
    01:00 +18°C° 0 mm 1 mps 703 mmHg 83%
    02:00 +18°C° 0 mm 1 mps 703 mmHg 83%
    03:00 +18°C° 0 mm 1 mps 702 mmHg 83%
    04:00 +18°C° 0 mm 1 mps 702 mmHg 82%
    05:00 +19°C° 0 mm 1 mps 702 mmHg 80%
    06:00 +20°C° 0 mm 1 mps 703 mmHg 77%
    07:00 +21°C° 0 mm 1 mps 703 mmHg 74%
    08:00 +22°C° 0 mm 1 mps 703 mmHg 69%
    09:00 +24°C° 0 mm 1 mps 704 mmHg 65%
    10:00 +25°C° 0 mm 1 mps 704 mmHg 60%
    11:00 +26°C° 0 mm 1 mps 704 mmHg 57%
    12:00 +27°C° 0 mm 1 mps 704 mmHg 55%
    13:00 +27°C° 0 mm 1 mps 704 mmHg 52%
    14:00 +27°C° 0.1 mm 2 mps 704 mmHg 53%
    15:00 +27°C° 0.1 mm 2 mps 703 mmHg 54%
    16:00 +27°C° 0.1 mm 2 mps 703 mmHg 55%
    17:00 +25°C° 0.1 mm 1 mps 703 mmHg 61%
    18:00 +24°C° 0.1 mm 1 mps 702 mmHg 67%
    19:00 +22°C° 0.1 mm 1 mps 702 mmHg 73%
    20:00 +21°C° 0.1 mm 1 mps 702 mmHg 75%
    21:00 +21°C° 0.1 mm 1 mps 702 mmHg 77%
    22:00 +20°C° 0.1 mm 1 mps 702 mmHg 79%
    23:00 +19°C° 0 mm 1 mps 702 mmHg 80%

    29 May, Tuesday

    Time Temperature Precipitation Wind Pressure Humidity
    00:00 +19°C° 0 mm 1 mps 702 mmHg 80%
    01:00 +19°C° 0 mm 1 mps 702 mmHg 81%
    02:00 +19°C° 0 mm 1 mps 702 mmHg 81%
    03:00 +19°C° 0 mm 1 mps 701 mmHg 81%
    04:00 +18°C° 0 mm 1 mps 701 mmHg 81%
    05:00 +20°C° 0 mm 1 mps 701 mmHg 77%
    06:00 +21°C° 0 mm 1 mps 702 mmHg 74%
    07:00 +21°C° 0 mm 0 mps 702 mmHg 70%
    08:00 +24°C° 0 mm 1 mps 702 mmHg 66%
    09:00 +25°C° 0 mm 1 mps 702 mmHg 62%
    10:00 +26°C° 0 mm 1 mps 702 mmHg 59%
    11:00 +26°C° 0.7 mm 1 mps 702 mmHg 57%
    12:00 +27°C° 0.7 mm 1 mps 702 mmHg 56%
    13:00 +28°C° 0.7 mm 1 mps 702 mmHg 54%
    14:00 +28°C° 0.9 mm 1 mps 702 mmHg 54%
    15:00 +28°C° 0.9 mm 1 mps 701 mmHg 54%
    16:00 +28°C° 0.9 mm 1 mps 701 mmHg 54%
    17:00 +26°C° 0.5 mm 1 mps 701 mmHg 59%
    18:00 +24°C° 0.5 mm 1 mps 700 mmHg 65%
    19:00 +23°C° 0.5 mm 1 mps 700 mmHg 70%
    20:00 +22°C° 0.3 mm 1 mps 700 mmHg 72%
    21:00 +21°C° 0.3 mm 1 mps 700 mmHg 73%
    22:00 +20°C° 0.3 mm 1 mps 700 mmHg 75%
    23:00 +20°C° 0 mm 1 mps 700 mmHg 74%

    30 May, Wednesday

    Time Temperature Precipitation Wind Pressure Humidity
    00:00 +20°C° 0 mm 1 mps 699 mmHg 74%
    01:00 +19°C° 0 mm 1 mps 699 mmHg 73%
    02:00 +19°C° 0 mm 1 mps 699 mmHg 72%
    03:00 +19°C° 0 mm 1 mps 699 mmHg 72%
    04:00 +19°C° 0 mm 1 mps 698 mmHg 71%
    05:00 +20°C° 0 mm 1 mps 699 mmHg 69%
    06:00 +21°C° 0 mm 1 mps 699 mmHg 67%
    07:00 +23°C° 0 mm 1 mps 699 mmHg 64%
    08:00 +24°C° 0 mm 1 mps 700 mmHg 60%
    09:00 +25°C° 0 mm 1 mps 700 mmHg 55%
    10:00 +27°C° 0 mm 2 mps 701 mmHg 51%
    11:00 +27°C° 0.1 mm 2 mps 701 mmHg 50%
    12:00 +28°C° 0.1 mm 2 mps 701 mmHg 48%
    13:00 +28°C° 0.1 mm 3 mps 701 mmHg 47%
    14:00 +28°C° 0.2 mm 3 mps 700 mmHg 48%
    15:00 +28°C° 0.2 mm 3 mps 700 mmHg 49%
    16:00 +27°C° 0.2 mm 3 mps 700 mmHg 50%
    17:00 +26°C° 0.1 mm 3 mps 700 mmHg 56%
    18:00 +24°C° 0.1 mm 2 mps 699 mmHg 63%
    19:00 +21°C° 0.1 mm 2 mps 699 mmHg 69%
    20:00 +20°C° 0 mm 2 mps 699 mmHg 71%
    21:00 +19°C° 0 mm 2 mps 699 mmHg 73%
    22:00 +18°C° 0 mm 2 mps 699 mmHg 75%
    23:00 +17°C° 0 mm 2 mps 699 mmHg 74%

    31 May, Thursday

    Time Temperature Precipitation Wind Pressure Humidity
    00:00 +17°C° 0 mm 2 mps 699 mmHg 74%
    01:00 +17°C° 0 mm 2 mps 699 mmHg 73%
    02:00 +16°C° 0 mm 2 mps 699 mmHg 72%
    03:00 +16°C° 0 mm 2 mps 699 mmHg 71%
    04:00 +16°C° 0 mm 2 mps 698 mmHg 70%
    05:00 +18°C° 0 mm 1 mps 699 mmHg 68%
    06:00 +20°C° 0 mm 1 mps 699 mmHg 66%
    07:00 +21°C° 0 mm 1 mps 699 mmHg 64%
    08:00 +23°C° 0 mm 1 mps 700 mmHg 59%
    09:00 +24°C° 0 mm 1 mps 700 mmHg 55%
    10:00 +25°C° 0 mm 2 mps 701 mmHg 51%
    11:00 +26°C° 0 mm 2 mps 701 mmHg 50%
    12:00 +27°C° 0 mm 2 mps 701 mmHg 49%
    13:00 +28°C° 0 mm 2 mps 701 mmHg 48%
    14:00 +28°C° 0.1 mm 2 mps 701 mmHg 50%
    15:00 +27°C° 0.1 mm 2 mps 700 mmHg 51%
    16:00 +27°C° 0.1 mm 2 mps 700 mmHg 53%
    17:00 +26°C° 0.3 mm 2 mps 700 mmHg 60%
    18:00 +24°C° 0.3 mm 1 mps 700 mmHg 67%
    19:00 +23°C° 0.3 mm 1 mps 700 mmHg 74%
    20:00 +22°C° 0.4 mm 1 mps 700 mmHg 76%
    21:00 +21°C° 0.4 mm 1 mps 700 mmHg 78%
    22:00 +20°C° 0.4 mm 1 mps 700 mmHg 80%
    23:00 +19°C° 0 mm 1 mps 700 mmHg 81%
    Show more